loading
|

ONEWEB-0066, 45424

Orbit data source: Space-Track

ONEWEB-0066, 45424 is a payload satellite owned by One Web (UK) in LEO that was launched on Sat, 21 Mar 2020 UTC via a SOYUZ-2-1B launch vehicle from the Tyuratam Missile And Space Complex (TTMTR). Payloads include a variety of satellites, spacecraft, and rockets equipped with specific instruments for various scientific and technological missions. These include communications satellites like Starlink; space stations such as the ISS; scientific satellites like the Hubble; Earth observation satellites from companies like Planet Labs, Umbra, and HawkEye 360; GPS; miniature CubeSats for education and research; and military/defense satellites.

Loading next visibility...
Loading greatness...
ONEWEB-0066 details
Identifier
45424, 2020-020A
Orbit
LEO
Last TLE update9 hours ago
Origin
Flag of UKOne Web (UK)
ManufacturerOne Web
MissionOperational Commercial Communications
Bus & MotorARROW, Unknown motor
Mass148 kg wet, ~140 kg dry
Launch date (UTC)
2020-03-21 (5 years ago)
Launch vehicle
SOYUZ-2-1B
Launch site
Tyuratam Missile And Space Complex (TTMTR)
Object type
Payload
Rocket body
Debris
Shape & HBRTrap Box + 2 Pan, 5 m
Radar Cross Section2.957 m², Large (>1 m²)

Expand to show TLE details & history

TLE from 9 hours ago
0 ONEWEB-0066
1 45424U 20020A   24279.54062735  .00000637  00000-0  17618-2 0  9990
2 45424  87.8937 144.4931 0001600  92.2426 267.8885 13.11417002221460
Epoch: 2024-10-05T12:58Z
Definitive object data (Epoch: 2024-10-05T12:58:30.203Z)
Latitude-0.00001°
Longitude-64.82821°
Altitude1,220.617 km
Speed7.244 km/s
True Right ascension09h 37m 58s
True Declination0° 00' 00"
Sunlit
Object was in daylight at TLE epoch
Predictive object data (real-time)
Latitude-56.70042°
Longitude118.29483°
Altitude1,240.704 km
Speed7.233 km/s
Apparent Right ascension00h 56m 25s
Apparent Declination-57° 08' 33"
Sunlit
Object is in daylight
Predictive observer data (real-time)
Local Sidereal Time15:29:49
Azimuth137.8° SSE
Elevation-59.922°
Doppler factor1
Orbital elements
Apogee1,216.016 km
Perigee1,213.586 km
Semi-major axis7,592.938 km
Eccentricity0.00016
Inclination87.8937°
RAAN144.4931°
Arg. of periapsis92.2426°
True anomaly267.87018°
Mean anomaly267.8885°
Eccentric anomaly267.87934°
Mean motion3.28041 °/min
BSTAR0.0017618
Period109.74 mins
No data available

ONEWEB-0066 Visibility forecast

Observer location: 39.9160978°, -105.1181434

ONEWEB-0066 is not visible in the next 10 days
Span
Click to sort rows by Start time (UTC) header in descending order
Start Az.
Max El. time (UTC)
Max El. Az.
Max El.
End time (UTC)
End Az.